Regional Weather Roundup
Issued by NWS

Home | Current Version | Previous Version | Graphics & Text | Print | Product List | Glossary On
Versions: 1 2 3 4 5 6 7 8 9 10 11 12 13 14 15 16 17 18 19 20 21 22 23 24 25 26 27 28 29 30 31 32 33 34 35 36 37 38 39 40 41 42 43 44 45 46 47 48 49 50
000
ASUS45 KBOI 241410
RWRID

IDAHO REGIONAL WEATHER ROUNDUP
NATIONAL WEATHER SERVICE BOISE ID
800 AM MDT TUE MAY 24 2016

NOTE: "FAIR" INDICATES FEW OR NO CLOUDS BELOW 12000 FEET
WITH NO SIGNIFICANT WEATHER AND/OR OBSTRUCTIONS TO VISIBILITY

IDZ012-014-241500-
SOUTHWEST IDAHO


CITY           SKY/WX    TMP DP  RH WIND       PRES   REMARKS
BOISE          MOSUNNY   49  41  74 SW3       29.86R
CALDWELL       CLOUDY    49  43  80 W6        29.87R
MOUNTAIN HOME  PTSUNNY   54  42  65 NW10      29.84R
$$

IDZ016-017-241500-
SOUTHCENTRAL IDAHO


CITY           SKY/WX    TMP DP  RH WIND       PRES   REMARKS
BURLEY         PTSUNNY   47  43  86 SW3       29.85R
JEROME         CLOUDY    47  41  80 E5        29.86R
TWIN FALLS     CLOUDY    48  39  71 SW9       29.86R
$$

IDZ019>023-241500-
SOUTHEAST IDAHO


CITY           SKY/WX    TMP DP  RH WIND       PRES   REMARKS
IDAHO FALLS    SUNNY     44  38  79 N5        29.87S
POCATELLO      MOSUNNY   44  39  82 CALM      29.87R
REXBURG        SUNNY     41  34  76 NE3       29.88S
$$

IDZ006-010-011-018-031-032-241500-
CENTRAL IDAHO MOUNTAINS


CITY           SKY/WX    TMP DP  RH WIND       PRES   REMARKS
MCCALL         MOSUNNY   37  34  89 CALM      29.89R
HAILEY         MOSUNNY   41  32  70 NW9       29.90S
STANLEY          N/A     30  26  85 CALM      29.94F
SALMON         CLOUDY    41  36  81 N3        29.91R
CHALLIS        MOSUNNY   38  32  79 CALM      29.92R
$$

IDZ002-004-006-007-026-241500-
NORTHERN IDAHO


CITY           SKY/WX    TMP DP  RH WIND       PRES   REMARKS
LEWISTON       LGT RAIN  51  47  86 SE5       29.90R
LOWELL           N/A     48  45  89 CALM      29.95R
COEUR D`ALENE  CLOUDY    48  46  93 CALM      29.88S
MULLAN PASS    LGT RAIN  35  35 100 NW3       29.90R VSB<1/4
$$



USA.gov is the U.S. government's official web portal to all federal, state and local government web resources and services.